TimeHST,TemperatureF,Dew PointF,Humidity,Sea Level PressureIn,VisibilityMPH,Wind Direction,Wind SpeedMPH,Gust SpeedMPH,PrecipitationIn,Events,Conditions,WindDirDegrees,DateUTC
12:56 AM,70.9,68.9,93,29.98,10.0,NNE,4.6,-,N/A,,Mostly Cloudy,30,2013-08-23 10:56:00
1:56 AM,70.9,68.0,91,29.97,10.0,NE,6.9,-,N/A,,Clear,40,2013-08-23 11:56:00
2:56 AM,68.9,66.9,93,29.96,10.0,ENE,8.1,-,N/A,,Partly Cloudy,60,2013-08-23 12:56:00
3:56 AM,70.0,68.9,96,29.96,10.0,NNE,13.8,-,N/A,,Mostly Cloudy,30,2013-08-23 13:56:00
4:56 AM,70.9,68.0,91,29.95,10.0,NE,13.8,-,N/A,,Mostly Cloudy,50,2013-08-23 14:56:00
5:56 AM,72.0,68.0,87,29.96,10.0,NE,13.8,-,N/A,,Scattered Clouds,40,2013-08-23 15:56:00
6:56 AM,72.9,64.9,76,29.97,10.0,East,12.7,-,N/A,,Partly Cloudy,90,2013-08-23 16:56:00
7:56 AM,77.9,63.9,62,29.98,10.0,ESE,6.9,-,N/A,,Clear,110,2013-08-23 17:56:00
8:56 AM,81.0,61.0,50,29.99,10.0,NE,11.5,16.1,N/A,,Clear,40,2013-08-23 18:56:00
9:56 AM,82.9,61.0,47,29.99,10.0,ENE,11.5,-,N/A,,Clear,70,2013-08-23 19:56:00
10:56 AM,84.9,63.0,48,29.98,10.0,NNE,16.1,19.6,N/A,,Clear,30,2013-08-23 20:56:00
11:56 AM,81.9,64.9,56,29.98,10.0,Variable,4.6,-,N/A,,Mostly Cloudy,0,2013-08-23 21:56:00
12:56 PM,81.9,64.9,56,29.96,10.0,Variable,4.6,-,N/A,,Mostly Cloudy,0,2013-08-23 22:56:00
1:18 PM,82.4,66.2,58,30.02,10.0,NE,10.4,-,N/A,,Overcast,50,2013-08-23 23:18:00
1:56 PM,82.4,64.4,54,30.01,10.0,NNW,9.2,-,N/A,,Mostly Cloudy,330,2013-08-23 23:56:00
2:26 PM,84.2,66.2,55,30.01,10.0,Variable,4.6,-,N/A,,Mostly Cloudy,0,2013-08-24 00:26:00
2:47 PM,82.4,64.4,54,30.01,10.0,WNW,6.9,-,N/A,,Mostly Cloudy,290,2013-08-24 00:47:00
2:56 PM,81.0,64.9,58,29.94,10.0,WNW,8.1,-,N/A,,Overcast,290,2013-08-24 00:56:00
3:56 PM,79.9,66.9,64,29.93,10.0,NW,9.2,-,N/A,,Mostly Cloudy,310,2013-08-24 01:56:00
4:38 PM,78.8,66.2,65,30.00,10.0,North,6.9,-,N/A,,Scattered Clouds,10,2013-08-24 02:38:00
4:56 PM,79.0,66.9,66,29.92,10.0,NNE,15.0,-,N/A,,Partly Cloudy,30,2013-08-24 02:56:00
5:56 PM,77.9,66.9,69,29.93,10.0,NNE,19.6,24.2,N/A,,Clear,30,2013-08-24 03:56:00
6:56 PM,73.9,66.9,79,29.94,10.0,NNE,18.4,-,N/A,,Clear,30,2013-08-24 04:56:00
7:56 PM,72.9,66.9,82,29.95,10.0,NNE,16.1,-,N/A,,Clear,30,2013-08-24 05:56:00
8:56 PM,72.0,66.9,84,29.98,-9999.0,NE,13.8,-,N/A,,Clear,50,2013-08-24 06:56:00
9:56 PM,72.0,66.9,84,30.00,10.0,East,6.9,-,N/A,,Clear,100,2013-08-24 07:56:00
10:56 PM,70.9,66.9,87,30.00,10.0,ENE,6.9,-,N/A,,Scattered Clouds,60,2013-08-24 08:56:00
11:56 PM,70.9,66.9,87,29.99,10.0,NNE,8.1,-,N/A,,Clear,30,2013-08-24 09:56:00